When you browse on this site, cookies collect data to enhance your experience and personalize the content and advertising you see.
Visit our Privacy Policy to learn more. By continuing to use the site, you agree to this use of cookies and data.
  • En España
  • Lista de países
  • Para 7 días
  • Temperatura del agua
  • El tiempo en el mapa
  • Informadores
  • user-avatar
    Iniciar sesión

    Tiempo cada hora Gorzów Wielkopolski

    Hoy, 1 Junio, Lunes

    Tiempo Temperatura Precipitaciones Viento Presión Humedad
    00:00 +10°C° 0 mm 3 mps 763 mmHg 77%
    01:00 +9°C° 0 mm 3 mps 763 mmHg 82%
    02:00 +9°C° 0 mm 3 mps 763 mmHg 84%
    03:00 +8°C° 0 mm 2 mps 763 mmHg 85%
    04:00 +8°C° 0 mm 2 mps 763 mmHg 87%
    05:00 +10°C° 0 mm 2 mps 763 mmHg 81%
    06:00 +11°C° 0 mm 3 mps 764 mmHg 75%
    07:00 +13°C° 0 mm 3 mps 764 mmHg 68%
    08:00 +16°C° 0 mm 3 mps 764 mmHg 62%
    09:00 +18°C° 0 mm 3 mps 764 mmHg 55%
    10:00 +20°C° 0 mm 3 mps 764 mmHg 48%
    11:00 +21°C° 0 mm 4 mps 764 mmHg 45%
    12:00 +22°C° 0 mm 4 mps 764 mmHg 42%
    13:00 +22°C° 0 mm 4 mps 764 mmHg 39%
    14:00 +22°C° 0 mm 4 mps 764 mmHg 40%
    15:00 +22°C° 0 mm 4 mps 763 mmHg 42%
    16:00 +22°C° 0 mm 4 mps 763 mmHg 44%
    17:00 +21°C° 0 mm 4 mps 763 mmHg 50%
    18:00 +19°C° 0 mm 4 mps 763 mmHg 57%
    19:00 +18°C° 0 mm 4 mps 763 mmHg 63%
    20:00 +15°C° 0 mm 4 mps 763 mmHg 68%
    21:00 +13°C° 0 mm 4 mps 763 mmHg 73%
    22:00 +12°C° 0 mm 3 mps 763 mmHg 78%
    23:00 +11°C° 0 mm 3 mps 763 mmHg 80%

    Mañana, 2 Junio, Martes

    Tiempo Temperatura Precipitaciones Viento Presión Humedad
    00:00 +10°C° 0 mm 3 mps 763 mmHg 82%
    01:00 +9°C° 0 mm 3 mps 762 mmHg 85%
    02:00 +9°C° 0 mm 3 mps 762 mmHg 86%
    03:00 +9°C° 0 mm 2 mps 762 mmHg 88%
    04:00 +8°C° 0 mm 2 mps 762 mmHg 89%
    05:00 +10°C° 0 mm 3 mps 762 mmHg 83%
    06:00 +12°C° 0 mm 3 mps 762 mmHg 76%
    07:00 +14°C° 0 mm 3 mps 762 mmHg 69%
    08:00 +17°C° 0 mm 4 mps 761 mmHg 62%
    09:00 +18°C° 0 mm 4 mps 761 mmHg 55%
    10:00 +20°C° 0 mm 4 mps 761 mmHg 49%
    11:00 +21°C° 0 mm 4 mps 760 mmHg 48%
    12:00 +21°C° 0 mm 4 mps 760 mmHg 47%
    13:00 +22°C° 0 mm 4 mps 760 mmHg 47%
    14:00 +22°C° 0.1 mm 4 mps 759 mmHg 51%
    15:00 +21°C° 0.1 mm 4 mps 759 mmHg 54%
    16:00 +21°C° 0.1 mm 4 mps 758 mmHg 58%
    17:00 +20°C° 0.2 mm 3 mps 758 mmHg 64%
    18:00 +19°C° 0.2 mm 3 mps 757 mmHg 71%
    19:00 +17°C° 0.2 mm 2 mps 757 mmHg 77%
    20:00 +17°C° 0 mm 2 mps 757 mmHg 78%
    21:00 +16°C° 0 mm 2 mps 757 mmHg 79%
    22:00 +15°C° 0 mm 1 mps 757 mmHg 80%
    23:00 +14°C° 0 mm 1 mps 756 mmHg 82%

    Pasado mañana, 3 Junio, Miércoles

    Tiempo Temperatura Precipitaciones Viento Presión Humedad
    00:00 +13°C° 0 mm 1 mps 756 mmHg 85%
    01:00 +12°C° 0 mm 1 mps 756 mmHg 88%
    02:00 +12°C° 0 mm 1 mps 755 mmHg 88%
    03:00 +12°C° 0 mm 1 mps 755 mmHg 89%
    04:00 +12°C° 0 mm 1 mps 754 mmHg 90%
    05:00 +13°C° 0 mm 1 mps 754 mmHg 85%
    06:00 +15°C° 0 mm 1 mps 754 mmHg 80%
    07:00 +16°C° 0 mm 1 mps 754 mmHg 75%
    08:00 +18°C° 0 mm 1 mps 754 mmHg 70%
    09:00 +20°C° 0 mm 1 mps 753 mmHg 66%
    10:00 +20°C° 0 mm 2 mps 753 mmHg 61%
    11:00 +20°C° 0.8 mm 2 mps 753 mmHg 64%
    12:00 +20°C° 0.8 mm 2 mps 752 mmHg 67%
    13:00 +20°C° 0.8 mm 2 mps 752 mmHg 70%
    14:00 +20°C° 0.6 mm 2 mps 752 mmHg 68%
    15:00 +21°C° 0.6 mm 2 mps 751 mmHg 65%
    16:00 +21°C° 0.6 mm 2 mps 751 mmHg 63%
    17:00 +20°C° 0.5 mm 2 mps 750 mmHg 68%
    18:00 +19°C° 0.5 mm 2 mps 750 mmHg 74%
    19:00 +18°C° 0.5 mm 2 mps 750 mmHg 79%
    20:00 +17°C° 0 mm 2 mps 750 mmHg 80%
    21:00 +15°C° 0 mm 2 mps 750 mmHg 81%
    22:00 +14°C° 0 mm 2 mps 750 mmHg 81%
    23:00 +13°C° 0 mm 2 mps 750 mmHg 83%

    4 Junio, Jueves

    Tiempo Temperatura Precipitaciones Viento Presión Humedad
    00:00 +12°C° 0 mm 2 mps 749 mmHg 84%
    01:00 +12°C° 0 mm 2 mps 749 mmHg 85%
    02:00 +10°C° 0 mm 2 mps 749 mmHg 85%
    03:00 +10°C° 0 mm 2 mps 748 mmHg 84%
    04:00 +9°C° 0 mm 2 mps 748 mmHg 83%
    05:00 +11°C° 0 mm 3 mps 747 mmHg 77%
    06:00 +13°C° 0 mm 4 mps 747 mmHg 71%
    07:00 +14°C° 0 mm 4 mps 747 mmHg 65%
    08:00 +16°C° 0 mm 5 mps 747 mmHg 58%
    09:00 +19°C° 0 mm 5 mps 746 mmHg 51%
    10:00 +20°C° 0 mm 6 mps 746 mmHg 44%
    11:00 +21°C° 0 mm 6 mps 746 mmHg 44%
    12:00 +22°C° 0 mm 6 mps 745 mmHg 44%
    13:00 +23°C° 0 mm 6 mps 744 mmHg 44%
    14:00 +23°C° 0 mm 6 mps 744 mmHg 46%
    15:00 +22°C° 0 mm 6 mps 744 mmHg 49%
    16:00 +22°C° 0 mm 6 mps 743 mmHg 52%
    17:00 +21°C° 0 mm 5 mps 743 mmHg 56%
    18:00 +20°C° 0 mm 5 mps 743 mmHg 61%
    19:00 +20°C° 0 mm 4 mps 742 mmHg 66%
    20:00 +19°C° 0 mm 4 mps 742 mmHg 67%
    21:00 +19°C° 0 mm 4 mps 742 mmHg 67%
    22:00 +18°C° 0 mm 4 mps 742 mmHg 68%
    23:00 +17°C° 0.4 mm 3 mps 742 mmHg 72%

    5 Junio, Viernes

    Tiempo Temperatura Precipitaciones Viento Presión Humedad
    00:00 +17°C° 0.4 mm 2 mps 742 mmHg 76%
    01:00 +16°C° 0.4 mm 1 mps 742 mmHg 79%
    02:00 +16°C° 1.4 mm 2 mps 742 mmHg 82%
    03:00 +15°C° 1.4 mm 2 mps 742 mmHg 85%
    04:00 +14°C° 1.4 mm 2 mps 742 mmHg 87%
    05:00 +13°C° 1.1 mm 3 mps 742 mmHg 90%
    06:00 +13°C° 1.1 mm 4 mps 742 mmHg 92%
    07:00 +13°C° 1.1 mm 4 mps 743 mmHg 94%
    08:00 +12°C° 3.1 mm 5 mps 743 mmHg 94%
    09:00 +12°C° 3.1 mm 5 mps 743 mmHg 95%
    10:00 +10°C° 3.1 mm 5 mps 743 mmHg 95%
    11:00 +10°C° 0.6 mm 5 mps 744 mmHg 94%
    12:00 +10°C° 0.6 mm 5 mps 744 mmHg 93%
    13:00 +9°C° 0.6 mm 5 mps 744 mmHg 92%
    14:00 +12°C° 0.1 mm 4 mps 745 mmHg 86%
    15:00 +13°C° 0.1 mm 4 mps 745 mmHg 81%
    16:00 +14°C° 0.1 mm 4 mps 745 mmHg 76%
    17:00 +14°C° 0 mm 3 mps 745 mmHg 74%
    18:00 +14°C° 0 mm 3 mps 746 mmHg 73%
    19:00 +15°C° 0 mm 2 mps 746 mmHg 72%
    20:00 +14°C° 0 mm 2 mps 746 mmHg 73%
    21:00 +13°C° 0 mm 2 mps 747 mmHg 74%
    22:00 +12°C° 0 mm 2 mps 747 mmHg 75%
    23:00 +12°C° 0 mm 2 mps 747 mmHg 76%

    6 Junio, Sábado

    Tiempo Temperatura Precipitaciones Viento Presión Humedad
    00:00 +10°C° 0 mm 3 mps 747 mmHg 78%
    01:00 +9°C° 0 mm 3 mps 747 mmHg 79%
    02:00 +9°C° 0 mm 3 mps 747 mmHg 83%
    03:00 +8°C° 0 mm 3 mps 747 mmHg 87%
    04:00 +8°C° 0 mm 2 mps 747 mmHg 90%
    05:00 +9°C° 0 mm 3 mps 747 mmHg 84%
    06:00 +11°C° 0 mm 3 mps 748 mmHg 78%
    07:00 +13°C° 0 mm 3 mps 748 mmHg 72%
    08:00 +14°C° 0 mm 4 mps 748 mmHg 66%
    09:00 +15°C° 0 mm 5 mps 748 mmHg 61%
    10:00 +16°C° 0 mm 5 mps 748 mmHg 55%
    11:00 +17°C° 0.2 mm 5 mps 748 mmHg 56%
    12:00 +19°C° 0.2 mm 5 mps 748 mmHg 58%
    13:00 +19°C° 0.2 mm 5 mps 747 mmHg 59%
    14:00 +19°C° 0.1 mm 5 mps 748 mmHg 60%
    15:00 +19°C° 0.1 mm 5 mps 748 mmHg 61%
    16:00 +19°C° 0.1 mm 5 mps 748 mmHg 62%
    17:00 +18°C° 0.1 mm 4 mps 748 mmHg 67%
    18:00 +17°C° 0.1 mm 3 mps 748 mmHg 72%
    19:00 +17°C° 0.1 mm 2 mps 748 mmHg 76%
    20:00 +16°C° 0 mm 2 mps 749 mmHg 79%
    21:00 +15°C° 0 mm 2 mps 749 mmHg 82%
    22:00 +13°C° 0 mm 2 mps 750 mmHg 86%
    23:00 +13°C° 0 mm 2 mps 750 mmHg 88%
    Mostrar más